SENTINEL-1A

Last updated on Mon Sep 21 2026 00:02:45 GMT+0000 (Coordinated Universal Time)

1 39634U 14016A 26263.59723696 .00000042 00000+0 18410-4 0 9996 2 39634 98.1601 269.6356 0001469 83.1378 276.9989 14.59806277663935
UTC large
Height (km)
Speed (km/s)
/
Latitude / Longitude
Inclination (degrees)
Orbital Period (minutes)
Azimuth
Elevation
Range (km)
Doppler Factor

Next 0 passes for location: London (51.5072 / 0.1276)

No passes found over London.
SENTINEL-1A